Zurück zum Katalog

FREGAT DEB

AktivUNKNOWN
NORAD 46006·DEBRIS·🇷🇺 Russia

Gestartet Jul 18, 2011 von Baikonur Cosmodrome

Loading…

Nächste Überflüge (nächste 24 Stunden)

TLE

AktuellSource: Space-Track

Epoche: Sep 14, 2026, 04:35 UTC

1 46006U 11037HH  26257.19107571  .00011190  00000-0  65397-3 0  9996
2 46006  51.3970 188.4528 1575418 141.3312 231.1679 12.21694127261716

Verfolge FREGAT DEB in Echtzeit mit AllMySat

Download on the App Store